Stations météo

Publicité
Cherbourg, France (7024): Température de l'air & dewpoint: 16.01.2019 02:00:00 - 22.01.2019 02:00:00 (CET)Cherbourg, France (7024): Température de l'air 5cm: 16.01.2019 02:00:00 - 22.01.2019 02:00:00 (CET)Cherbourg, France (7024): Température de l'air -20cm & Température de l'air -100cm: 16.01.2019 02:00:00 - 22.01.2019 02:00:00 (CET)Cherbourg, France (7024): Vitesse du vent & gusts: 16.01.2019 02:00:00 - 22.01.2019 02:00:00 (CET)Cherbourg, France (7024): Direction du vent: 16.01.2019 02:00:00 - 22.01.2019 02:00:00 (CET)Cherbourg, France (7024): reduced air pressure: 16.01.2019 02:00:00 - 22.01.2019 02:00:00 (CET)Cherbourg, France (7024): visibility: 16.01.2019 02:00:00 - 22.01.2019 02:00:00 (CET)Cherbourg, France (7024): Ensoleillement: 16.01.2019 02:00:00 - 22.01.2019 02:00:00 (CET)Cherbourg, France (7024): Quantités de précipitations: 16.01.2019 02:00:00 - 22.01.2019 02:00:00 (CET)
Date & Time tt [°C] td [°C] tt 5cm [°C] tt -20cm [°C] tt -100cm [°C] ff [km/h] ff [knt] fx [km/h] fx [knt] dd ppp [hPa] vv [km] sd [min] rr [mm]
22.01.2019 02:00:00 5,6 3,6 5,1 6,6 8,5 35 19 53 29 SSW 1010,1 3,1 0 0,4
22.01.2019 01:00:00 5,8 3,3 4,9 6,7 8,6 26 14 45 24 S 1011,8 8 0 0,0
22.01.2019 00:00:00 5,2 3,2 3,3 6,7 8,6 23 13 36 19 SSW 1013,4 5 0 0,0
21.01.2019 23:00:00 3,9 1,8 2,9 6,7 8,6 18 10 30 16 S 1015,2 3,6 0 0,0
21.01.2019 22:00:00 3,4 0,4 2,3 6,7 8,6 16 8 28 15 S 1016,7 6 0 0,0
21.01.2019 21:00:00 2,7 0,1 2,1 6,7 8,6 18 10 27 14 S 1017,7 4,3 0 0,0
21.01.2019 20:00:00 3,5 -0,2 3,1 6,8 8,6 19 10 27 15 S 1019,0 8 0 0,0
21.01.2019 19:00:00 3,4 -0,8 1,6 6,7 8,6 16 9 23 12 S 1019,9 9 0 0,0
21.01.2019 18:00:00 2,7 -1,5 1,4 6,7 8,6 12 7 18 10 SSW 1021,1 8 2 0,0
21.01.2019 17:00:00 4,7 -0,9 4,8 6,6 8,6 11 6 16 9 S 1021,3 11 15 0,0
21.01.2019 16:00:00 5,1 -0,9 5,4 6,6 8,6 6 3 12 6 SW 1022,0 17 41 0,0
21.01.2019 15:00:00 6,5 -1,2 8,1 6,5 8,6 3 1 8 5 SE 1022,5 17 36 0,0
21.01.2019 14:00:00 5,8 -1,8 6,4 6,5 8,6 3 2 12 6 E 1023,6 18 14 0,0
21.01.2019 13:00:00 5,3 -1,0 8,1 6,4 8,6 8 4 14 8 NNE 1024,3 16 39 0,0
21.01.2019 12:00:00 4,9 -0,9 5,9 6,5 8,6 5 3 11 6 NNE 1025,3 13 20 0,0
21.01.2019 11:00:00 4,5 -1,7 3,8 6,5 8,6 2 1 6 3 NNE 1025,5 11 46 0,0
21.01.2019 10:00:00 2,3 -2,8 -1,9 6,5 8,6 0 0 7 4 N 1025,3 11 31 0,0
21.01.2019 09:00:00 1,5 -2,6 -2,6 6,5 8,6 6 3 10 5 N 1025,1 10 0 0,0
21.01.2019 08:00:00 1,5 -2,8 -1,6 6,6 8,6 4 2 23 12 N 1025,0 10 0 0,0
21.01.2019 07:00:00 3,2 -1,6 2,2 6,6 8,6 14 7 30 16 N 1025,0 12 0 0,0
21.01.2019 06:00:00 3,1 -1,3 1,6 6,7 8,7 14 8 24 13 NNE 1024,6 12 0 0,0
21.01.2019 05:00:00 3,2 -1,2 2,2 6,7 8,7 14 7 27 14 NNE 1024,5 11 0 0,0
21.01.2019 04:00:00 3,5 -0,9 1,3 6,7 8,6 16 9 26 14 NNE 1024,6 12 0 0,0
21.01.2019 03:00:00 2,7 -1,3 1,0 6,7 8,6 12 7 25 13 NNE 1024,5 11 0 0,0
21.01.2019 02:00:00 3,7 -1,1 1,4 6,8 8,7 16 9 25 13 NNE 1024,2 13 0 0,0
21.01.2019 01:00:00 3,3 -1,5 1,7 6,9 8,7 12 6 21 11 NNE 1024,2 11 0 0,0
21.01.2019 00:00:00 3,5 -1,1 1,7 6,9 8,7 10 6 18 10 N 1023,8 10 0 0,0
20.01.2019 23:00:00 3,5 -1,1 1,7 6,9 8,7 9 5 20 11 N 1023,4 11 0 0,0
20.01.2019 22:00:00 3,2 -1,2 1,5 7,0 8,7 9 5 18 10 N 1023,0 17 0 0,0
20.01.2019 21:00:00 3,3 -1,3 1,6 7,0 8,7 8 5 17 9 NNE 1022,5 19 0 0,0
20.01.2019 20:00:00 3,8 -0,8 2,5 7,0 8,7 9 5 25 14 NNE 1021,6 17 0 0,0
20.01.2019 19:00:00 4,3 -0,7 3,2 7,0 8,7 14 8 25 14 NNE 1021,1 15 0 0,0
20.01.2019 18:00:00 4,4 0,0 2,9 7,0 8,7 13 7 21 12 N 1020,2 15 0 0,0
20.01.2019 17:00:00 4,6 0,0 5,1 7,0 8,7 12 7 22 12 NNE 1019,4 17 49 0,0
20.01.2019 16:00:00 5,4 0,6 6,7 6,9 8,7 16 9 23 12 NE 1018,3 18 47 0,0
20.01.2019 15:00:00 5,9 -0,2 7,4 6,9 8,7 13 7 26 14 NE 1017,8 19 47 0,0
20.01.2019 14:00:00 5,9 0,4 7,5 6,9 8,7 16 9 27 14 NNE 1017,5 17 34 0,0
20.01.2019 13:00:00 6,2 2,5 5,6 6,9 8,7 16 9 27 15 NNE 1017,3 17 7 0,0
20.01.2019 12:00:00 5,4 1,5 4,8 6,9 8,7 12 7 28 15 N 1017,0 19 0 0,0
20.01.2019 11:00:00 5,2 1,7 4,6 6,9 8,7 11 6 26 14 NNE 1016,2 18 0 0,0
20.01.2019 10:00:00 4,8 2,2 4,6 6,8 8,7 16 9 29 15 NE 1015,1 12 0 0,0
20.01.2019 09:00:00 5,0 3,2 4,8 6,9 8,7 15 8 32 17 NNE 1014,1 7 0 0,0
20.01.2019 08:00:00 5,2 3,2 4,5 6,8 8,7 16 9 29 16 NNE 1013,0 10 0 0,0
20.01.2019 07:00:00 4,7 2,9 4,4 6,8 8,7 5 3 15 8 NE 1012,3 5 0 0,0
20.01.2019 06:00:00 4,6 2,9 4,4 6,9 8,7 8 4 15 8 NE 1011,7 7 0 0,0
20.01.2019 05:00:00 4,5 3,0 4,5 6,8 8,7 8 4 16 9 NE 1011,3 8 0 0,0
20.01.2019 04:00:00 5,1 4,2 5,0 6,8 8,8 11 6 18 10 ENE 1010,9 2,7 0 0,0
20.01.2019 03:00:00 5,2 4,3 5,1 6,8 8,7 10 6 18 10 E 1010,4 2,0 0 0,0
20.01.2019 02:00:00 5,5 4,6 5,4 6,8 8,8 13 7 21 11 ENE 1009,6 1,4 0 0,2
20.01.2019 01:00:00 5,6 4,7 5,1 6,8 8,8 4 2 8 4 E 1009,4 0,2 0 0,0
20.01.2019 00:00:00 5,5 4,6 5,2 6,7 8,8 3 2 8 5 SSE 1008,8 0,3 0 0,0
19.01.2019 23:00:00 5,4 4,5 5,1 6,8 8,8 5 3 9 5 SE 1008,3 0,5 0 0,0
19.01.2019 22:00:00 5,5 4,6 5,2 6,7 8,8 6 4 14 8 SE 1007,8 0,8 0 0,4
19.01.2019 21:00:00 5,4 4,5 5,2 6,7 8,8 9 5 13 7 SE 1007,4 1,0 0 0,6
19.01.2019 20:00:00 5,4 4,5 5,3 6,7 8,8 7 4 12 6 SE 1007,3 0,9 0 0,6
19.01.2019 19:00:00 5,5 4,6 5,3 6,7 8,8 7 4 13 7 SE 1007,0 1,0 0 0,8
19.01.2019 18:00:00 5,4 4,5 5,3 6,6 8,8 9 5 13 7 SSE 1006,7 0,6 0 0,2
19.01.2019 17:00:00 5,3 4,4 5,3 6,6 8,8 11 6 16 8 SSE 1006,5 1,2 0 0,0
19.01.2019 16:00:00 5,2 4,3 5,1 6,5 8,8 10 6 20 11 SSE 1006,4 1,2 0 0,0
19.01.2019 15:00:00 5,0 4,1 5,2 6,5 8,8 14 7 21 12 S 1006,6 1,4 0 0,2
19.01.2019 14:00:00 4,7 3,8 4,7 6,5 8,8 15 8 24 13 S 1007,0 0,3 0 0,0
19.01.2019 13:00:00 4,4 3,5 4,6 6,5 8,8 18 10 29 16 S 1007,7 0,3 0 0,0
19.01.2019 12:00:00 4,3 3,4 4,7 6,4 8,8 21 11 28 15 S 1008,1 0,4 0 0,0
19.01.2019 11:00:00 4,2 3,3 4,3 6,4 8,9 14 8 26 14 S 1008,3 0,4 0 0,0
19.01.2019 10:00:00 3,9 3,0 3,4 6,4 8,9 17 9 25 13 S 1008,0 0,7 16 0,0
19.01.2019 09:00:00 3,4 2,4 3,1 6,4 8,9 18 10 29 16 S 1008,0 1,3 0 0,0
19.01.2019 08:00:00 3,2 2,2 2,8 6,4 8,8 22 12 31 17 S 1008,0 1,1 0 0,0
19.01.2019 07:00:00 2,9 1,9 2,6 6,4 8,9 21 11 32 17 S 1008,2 1,1 0 0,0
19.01.2019 06:00:00 2,8 1,8 2,6 6,4 8,9 22 12 29 16 S 1008,4 1,8 0 0,0
19.01.2019 05:00:00 2,7 1,7 2,2 6,4 8,9 19 10 34 19 S 1008,9 3,0 0 0,0
19.01.2019 04:00:00 2,3 1,1 1,2 6,4 8,9 24 13 36 19 S 1009,4 4,9 0 0,0
19.01.2019 03:00:00 1,7 -0,1 0,8 6,5 8,9 24 13 33 18 S 1010,1 10 0 0,0
19.01.2019 02:00:00 1,3 -0,6 0,5 6,5 8,9 22 12 40 21 S 1010,5 11 0 0,0
19.01.2019 01:00:00 1,1 -0,7 0,5 6,5 8,9 23 12 40 22 S 1011,1 10 0 0,2
19.01.2019 00:00:00 1,5 0,0 0,7 6,6 8,9 22 12 37 20 S 1011,7 3,5 0 0,2
18.01.2019 23:00:00 1,4 -1,2 0,7 6,6 8,9 24 13 35 19 SSE 1011,8 13 0 0,6
18.01.2019 22:00:00 1,8 -2,5 1,0 6,6 8,9 22 12 36 19 SSE 1012,2 17 0 0,0
18.01.2019 21:00:00 2,3 -4,9 2,0 6,7 9,0 22 12 42 23 SSE 1012,4 19 0 0,0
18.01.2019 20:00:00 2,4 -5,7 1,9 6,7 9,0 24 13 37 20 SSE 1012,6 20 0 0,0
18.01.2019 19:00:00 2,5 -6,1 1,8 6,7 8,9 25 14 38 20 SSE 1013,1 60 0 0,0
18.01.2019 18:00:00 2,9 -6,5 2,2 6,8 9,0 27 15 42 23 SSE 1013,4 60 0 0,0
18.01.2019 17:00:00 3,8 -6,5 3,6 6,7 8,9 27 15 41 22 SSE 1013,7 20 57 0,0
18.01.2019 16:00:00 4,5 -5,9 4,8 6,8 9,0 24 13 39 21 SSE 1014,2 20 32 0,0
18.01.2019 15:00:00 4,4 -6,2 5,0 6,7 9,0 25 14 42 23 SSE 1014,9 19 45 0,0
18.01.2019 14:00:00 5,1 -5,6 6,1 6,7 9,0 27 14 44 24 S 1015,6 19 60 0,0
18.01.2019 13:00:00 4,1 -3,7 6,0 6,7 9,0 26 14 41 22 S 1016,3 19 60 0,0
18.01.2019 12:00:00 3,4 -3,2 4,0 6,7 9,0 24 13 39 21 S 1017,4 17 56 0,0
18.01.2019 11:00:00 2,6 -3,5 1,0 6,8 9,0 22 12 34 19 S 1017,9 17 52 0,0
18.01.2019 10:00:00 0,7 -4,0 -0,3 6,9 9,0 15 8 24 13 S 1018,2 20 0 0,0
18.01.2019 09:00:00 0,2 -4,4 -0,9 6,9 9,0 13 7 19 10 S 1018,3 19 0 0,0
18.01.2019 08:00:00 -0,1 -4,5 -1,1 6,9 9,0 15 8 18 10 S 1018,4 60 0 0,0
18.01.2019 07:00:00 0,2 -4,8 -1,2 6,9 9,0 9 5 12 7 S 1018,7 20 0 0,0
18.01.2019 06:00:00 0,6 -4,6 -1,6 7,0 9,0 10 6 13 7 S 1018,9 60 0 0,0
18.01.2019 05:00:00 0,4 -4,4 -0,7 7,1 9,0 9 5 13 7 S 1019,3 60 0 0,0
18.01.2019 04:00:00 0,9 -4,7 -1,2 7,1 9,0 8 4 11 6 S 1019,8 20 0 0,0
18.01.2019 03:00:00 1,0 -4,6 -2,3 7,2 9,0 9 5 12 6 SW 1020,3 20 0 0,0
18.01.2019 02:00:00 0,4 -5,0 -2,4 7,2 9,0 8 5 11 6 S 1020,3 60 0 0,0
18.01.2019 01:00:00 0,3 -4,3 -1,8 7,3 9,0 7 4 9 5 S 1020,7 20 0 0,0
18.01.2019 00:00:00 1,6 -4,5 -2,9 7,4 9,0 2 1 7 4 E 1020,7 18 0 0,0
17.01.2019 23:00:00 1,7 -4,8 -3,2 7,4 9,0 3 2 11 6 N 1020,6 20 0 0,0
17.01.2019 22:00:00 2,7 -5,0 -1,6 7,5 9,0 4 2 14 7 NNE 1019,9 60 0 0,0
17.01.2019 21:00:00 3,6 -5,1 1,0 7,6 9,0 9 5 18 10 NNW 1019,8 60 0 0,0
17.01.2019 20:00:00 3,3 -4,9 1,0 7,6 9,0 8 5 21 11 NNW 1019,3 60 0 0,0
17.01.2019 19:00:00 3,4 -5,3 1,1 7,6 9,0 10 6 30 16 N 1018,9 60 0 0,0
17.01.2019 18:00:00 3,6 -5,4 1,5 7,6 9,0 11 6 23 12 N 1018,4 60 0 0,0
17.01.2019 17:00:00 4,3 -5,5 3,9 7,7 9,0 16 9 31 17 N 1017,6 58 55 0,0
17.01.2019 16:00:00 5,2 -4,4 7,2 7,6 9,0 14 8 35 19 N 1016,7 60 58 0,0
17.01.2019 15:00:00 5,8 -1,8 8,1 7,7 9,0 18 10 36 19 N 1016,1 18 60 0,0
17.01.2019 14:00:00 5,7 -1,7 5,9 7,6 9,0 21 11 50 27 N 1015,6 19 49 0,0
17.01.2019 13:00:00 6,2 -1,0 5,8 7,6 9,0 22 12 45 24 N 1015,0 19 21 0,0
17.01.2019 12:00:00 6,3 1,2 5,4 7,6 9,0 22 12 47 26 N 1014,0 19 4 0,0
17.01.2019 11:00:00 6,8 1,5 3,7 7,7 9,0 23 13 48 26 NW 1012,9 18 4 0,2
17.01.2019 10:00:00 6,8 0,7 5,6 7,7 9,0 22 12 42 23 NW 1012,1 19 4 0,0
17.01.2019 09:00:00 6,5 0,8 5,5 7,7 9,0 23 12 44 24 NW 1010,9 18 0 0,0
17.01.2019 08:00:00 6,6 0,9 5,5 7,8 9,0 22 12 45 24 NW 1010,1 18 0 0,0
17.01.2019 07:00:00 6,4 0,5 5,3 7,8 9,0 24 13 48 26 NW 1009,3 19 0 0,0
17.01.2019 06:00:00 6,4 0,7 5,4 7,8 9,0 28 15 56 31 NW 1008,3 19 0 0,0
17.01.2019 05:00:00 6,5 2,0 5,9 7,9 9,0 36 19 60 32 WNW 1007,2 19 0 0,0
17.01.2019 04:00:00 6,8 2,5 5,1 7,9 9,0 39 21 60 33 WNW 1006,3 17 0 0,0
17.01.2019 03:00:00 6,2 2,6 3,8 7,9 9,0 30 16 53 29 W 1005,9 16 0 0,4
17.01.2019 02:00:00 5,6 2,1 3,8 7,9 9,0 21 11 54 29 W 1005,9 60 0 0,2
17.01.2019 01:00:00 6,4 3,0 4,1 8,0 9,0 27 15 41 22 W 1005,9 16 0 0,0
17.01.2019 00:00:00 5,9 3,1 3,2 8,0 9,0 20 11 44 24 WSW 1006,5 12 0 0,6
16.01.2019 23:00:00 5,1 2,3 3,8 8,0 9,0 13 7 21 11 SW 1006,6 16 0 0,0
16.01.2019 22:00:00 6,2 2,8 5,3 8,0 9,0 11 6 20 11 WSW 1006,5 20 0 0,0
16.01.2019 21:00:00 7,1 3,7 6,5 8,0 9,0 16 8 28 15 W 1006,9 20 0 0,0
16.01.2019 20:00:00 7,6 4,5 6,8 8,0 9,0 14 8 34 19 WNW 1006,6 19 0 0,0
16.01.2019 19:00:00 7,5 4,4 6,8 8,0 9,0 18 10 40 21 NW 1006,4 60 0 0,0
16.01.2019 18:00:00 7,7 5,7 7,2 8,0 9,0 22 12 49 26 NW 1005,9 13 0 0,8
16.01.2019 17:00:00 8,4 6,7 7,3 8,0 9,0 26 14 46 25 SW 1005,4 12 0 0,0
16.01.2019 16:00:00 7,5 6,1 6,9 8,0 9,0 26 14 43 23 SW 1005,9 6 0 0,0
16.01.2019 15:00:00 7,1 5,6 6,9 7,9 9,0 24 13 51 27 SSW 1006,6 1,4 0 0,2
16.01.2019 14:00:00 7,7 4,6 8,0 7,9 9,0 35 19 52 28 SSW 1007,2 10 3 0,0
16.01.2019 13:00:00 7,4 4,7 8,1 7,9 9,0 31 17 48 26 SSW 1008,1 9 6 0,0
16.01.2019 12:00:00 7,8 4,6 7,0 7,9 9,0 26 14 45 25 SSW 1009,2 11 38 0,0
16.01.2019 11:00:00 6,4 3,4 6,3 7,9 9,0 29 16 45 25 SSW 1010,0 12 0 0,0
16.01.2019 10:00:00 6,0 3,3 5,0 8,0 9,0 32 17 45 24 SSW 1010,7 10 0 0,0
16.01.2019 09:00:00 5,4 3,2 4,9 8,0 9,0 27 15 42 23 S 1010,9 9 0 0,0
16.01.2019 08:00:00 5,7 3,5 5,2 8,0 9,0 24 13 39 21 SSW 1011,7 9 0 0,0
16.01.2019 07:00:00 5,6 3,3 5,4 8,0 9,0 21 11 40 22 SSW 1012,4 7 0 0,0
16.01.2019 06:00:00 5,8 3,3 5,6 8,1 9,0 24 13 35 19 SSW 1013,1 10 0 0,0
16.01.2019 05:00:00 6,0 3,5 5,6 8,1 9,0 16 9 26 14 SSW 1013,8 9 0 0,0
16.01.2019 04:00:00 5,8 3,5 5,5 8,1 9,0 13 7 32 17 SSW 1015,0 6 0 0,0
16.01.2019 03:00:00 6,1 3,3 5,8 8,1 9,0 20 11 38 20 SSW 1015,7 14 0 0,0
16.01.2019 02:00:00 6,3 3,8 5,8 8,1 9,0 23 12 32 18 SW 1016,5 15 0 0,0

tt = Température de l'air
td = dewpoint
tt 5cm = Température de l'air 5cm
tt -20cm = Température de l'air -20cm
tt -100cm = Température de l'air -100cm
ff = Vitesse du vent
fx = gusts
dd = Direction du vent
ppp = reduced air pressure
vv = visibility
sd = Ensoleillement
rr = Quantités de précipitations

stations d'obs. à proximité